SCP
0 0 0 0 0 0 0 0 0 0 0 0 0 0 0 0 0 0 0 0 0 0 0 0 0 0 0 0 0 0 0 0 0 0 0 0 0 0 0 0 0 0 0
0 0 0 0 0 0 0 0 0 0 0 0 0 0 0 0 0 0 0 0 0 0 0 0 0 0 0 0 0 0 0 0 0 0 0 0 0 0 0 0 0 0 0
0 0 0 0 0 0 0 0 0 0 0 0 0 0 0 0 0 0 0 0 0 0 0 0 0 0 0 0 0 0 0 0 0 0 0 0 0 0 0 0 0 0 0
0 0 0 0 0 0 0 0 0 0 0 0 0 0 0 0 0 0 0 0 0 0 0 0 0 0 0 0 0 0 0 0 0 0 0 0 0 0 0 0 0 0 0
0 0 0 0 0 0 0 0 0 0 0 0 0 0 0 0 0 0 0 0 0 0 0 0 0 0 0 0 0 0 0 0 0 0 0 0 0 0 0 0 0 0 0
0 0 0 0 0 0 0 0 0 0 0 0 0 0 0 0 0 0 0 0 0 0 0 0 0 0 0 0 0 0 0 0 0 0 0 0 0 0 0 0 0 0 0
0 0 0 0 0 0 0 0 0 0 0 0 0 0 0 0 0 0 0 0 0 0 0 0 0 0 0 0 0 0 0 0 0 0 0 0 0 0 0 0 0 0 0
0 0 0 0 0 0 0 0 0 0 0 0 0 0 0 0 0 0 0 0 0 0 0 0 0 0 0 0 0 0 0 0 0 0 0 0 0 0 0 0 0 0 0
0 0 0 0 0 0 0 0 0 0 0 0 0 0 0 0 0 0 0 0 0 0 0 0 0 0 0 0 0 0 0 0 0 0 0 0 0 0 0 0 0 0 0
0 0 0 0 0 0 0 0 0 0 0 0 0 0 0 0 0 0 0 0 0 0 0 0 0 0 0 0 0 0 0 0 0 0 0 0 0 0 0 0 0 0 0
0 0 0 0 0 0 0 0 0 0 0 0 0 0 0 0 0 0 0 0 0 0 0 0 0 0 0 0 0 0 0 0 0 0 0 0 0 0 0 0 0 0 0
0 0 0 0 0 0 0 0 0 0 0 0 0 0 0 0 0 0 0 0 0 0 0 0 0 0 0 0 0 0 0 0 0 0 0 0 0 0 0 0 0 0 0
0 0 0 0 0 0 0 0 0 0 0 0 0 0 0 0 0 0 0 0 0 0 0 0 0 0 0 0 0 0 0 0 0 0 0 0 0 0 0 0 0 0 0
0 0 0 0 0 0 0 0 0 0 0 0 0 0 0 0 0 0 0 0 0 0 0 0 0 0 0 0 0 0 0 0 0 0 0 0 0 0 0 0 0 0 0
0 0 0 0 0 0 0 0 0 0 0 0 0 0 0 0 0 0 0 0 0 0 0 0 0 0 0 0 0 0 0 0 0 0 0 0 0 0 0 0 0 0 0
0 0 0 0 0 0 0 0 0 0 0 0 0 0 0 0 0 0 0 0 0 0 0 0 0 0 0 0 0 0 0 0 0 0 0 0 0 0 0 0 0 0 0
0 0 0 0 0 0 0 0 0 0 0 0 0 0 0 0 0 0 0 0 0 0 0 0 0 0 0 0 0 0 0 0 0 0 0 0 0 0 0 0 0 0 0
0 0 0 0 0 0 0 0 0 0 0 0 0 0 0 0 0 0 0 0 0 0 0 0 0 0 0 0 0 0 0 0 0 0 0 0 0 0 0 0 0 0 0
0 0 0 0 0 0 0 0 0 0 0 0 0 0 0 0 0 0 0 0 0 0 0 0 0 0 0 0 0 0 0 0 0 0 0 0 0 0 0 0 0 0 0
0 0 0 0 0 0 0 0 0 0 0 0 0 0 0 0 0 0 0 0 0 0 0 0 0 0 0 0 0 0 0 0 0 0 0 0 0 0 0 0 0 0 0
0 0 0 0 0 0 0 0 0 0 0 0 0 0 0 0 0 0 0 0 0 0 0 0 0 0 0 0 0 0 0 0 0 0 0 0 0 0 0 0 0 0 0
0 0 0 0 0 0 0 0 0 0 0 0 0 0 0 0 0 0 0 0 0 0 0 0 0 0 0 0 0 0 0 0 0 0 0 0 0 0 0 0 0 0 0
0 0 0 0 0 0 0 0 0 0 0 0 0 0 0 0 0 0 0 0 0 0 0 0 0 0 0 0 0 0 0 0 0 0 0 0 0 0 0 0 0 0 0
0 0 0 0 0 0 0 0 0 0 0 0 0 0 0 0 0 0 0 0 0 0 0 0 0 0 0 0 0 0 0 0 0 0 0 0 0 0 0 0 0 0 0
0 0 0 0 0 0 0 0 0 0 0 0 0 0 0 0 0 0 0 0 0 0 0 0 0 0 0 0 0 0 0 0 0 0 0 0 0 0 0 0 0 0 0
0 0 0 0 0 0 0 0 0 0 0 0 0 0 0 0 0 0 0 0 0 0 0 0 0 0 0 0 0 0 0 0 0 0 0 0 0 0 0 0 0 0 0
Wind_Speed
2 2 2 2 2 1 1 2 2 2 2 2 3 3 3 3 3 3 3 7 9 9 9 9 10 11 11 11 11 11 11 11 11 10 10 11 11 10 10 10 10 9 8
2 2 2 2 2 2 2 2 2 2 2 2 3 3 3 3 3 3 3 4 7 8 9 10 11 11 12 12 12 12 12 11 11 11 11 11 11 10 10 10 9 9 8
2 2 2 2 2 2 2 1 1 1 2 2 3 3 3 3 3 3 3 3 3 6 8 9 10 11 12 12 12 12 12 12 12 12 12 11 11 10 10 10 9 8 8
3 2 2 2 3 2 1 1 1 1 2 2 2 3 2 3 4 3 3 2 2 2 4 7 8 9 11 12 13 13 13 13 12 12 12 12 11 11 10 10 9 9 8
3 2 2 2 3 2 1 1 0 1 1 2 2 3 2 2 3 3 3 3 3 3 2 5 8 9 10 12 13 13 14 14 14 13 13 12 12 11 10 10 10 9 8
3 2 2 2 2 1 1 1 1 1 1 2 2 2 2 2 2 3 3 2 3 3 3 3 3 6 10 11 12 13 14 14 14 14 14 14 13 12 12 11 10 10 9
4 2 2 2 2 1 1 1 1 1 1 1 0 1 2 2 2 2 2 2 3 3 3 4 3 3 4 10 11 13 14 14 15 15 15 14 13 13 13 12 11 10 9
4 3 2 2 2 1 2 1 1 0 1 0 1 0 1 1 1 2 2 3 3 3 4 5 4 4 4 3 6 12 12 13 15 15 15 15 14 14 13 13 12 11 11
4 3 3 2 2 1 1 1 0 0 1 1 1 1 1 1 1 1 1 2 2 3 3 3 5 5 5 4 5 9 12 12 14 16 16 16 15 15 14 14 13 12 11
4 4 3 2 2 1 1 2 0 0 0 1 1 1 1 1 0 1 2 1 2 2 3 3 4 5 6 5 6 9 12 13 14 16 16 16 16 16 15 15 14 13 12
4 4 3 3 2 1 2 2 1 0 1 1 1 1 1 0 1 1 1 2 1 2 2 3 3 4 6 6 5 8 12 13 14 16 16 17 17 17 17 16 15 14 14
3 5 4 3 2 2 2 2 2 1 1 1 1 1 1 1 1 2 2 1 1 2 2 3 3 4 4 5 8 11 12 13 14 15 15 15 16 17 18 18 17 16 15
3 4 4 4 3 2 2 2 2 2 1 1 2 2 2 2 1 1 2 1 1 2 2 2 2 3 4 4 6 11 12 13 14 15 15 15 15 16 17 18 18 18 17
3 4 4 4 3 3 2 2 1 2 1 1 2 2 2 2 2 2 2 2 1 1 2 3 1 2 3 3 5 9 7 12 13 14 15 15 15 15 16 16 17 17 18
3 4 4 4 4 3 3 2 1 2 2 2 2 2 2 2 2 2 3 3 2 2 2 3 2 2 2 2 4 5 5 9 12 13 14 14 15 15 16 16 16 15 15
3 4 4 4 4 3 3 2 2 2 2 2 1 2 2 2 2 2 3 3 3 3 3 2 2 2 2 3 4 5 6 8 10 12 13 14 15 15 15 15 15 15 14
3 3 3 3 4 4 3 2 2 2 2 2 2 2 3 2 2 2 2 2 3 3 4 3 2 2 2 3 3 3 4 5 5 10 12 13 14 15 15 15 15 15 15
3 3 3 3 3 3 3 3 3 3 2 3 3 2 3 2 2 2 2 3 2 3 3 4 2 2 3 3 3 3 3 4 4 8 11 12 13 14 14 15 15 15 15
3 3 3 3 4 4 3 3 3 3 3 3 3 3 3 3 3 2 3 3 2 3 3 3 3 2 2 2 2 3 3 3 4 6 9 11 12 13 14 15 15 15 15
3 3 3 4 4 4 4 3 3 3 3 3 3 3 3 3 4 3 3 3 3 3 3 3 3 2 2 2 2 2 3 3 3 4 5 6 9 11 13 14 15 15 15
4 3 3 4 4 4 3 3 3 3 3 3 3 3 4 5 6 4 3 3 3 3 3 3 3 2 3 2 3 2 3 3 3 3 3 4 4 5 7 11 13 15 15
4 3 3 4 4 4 7 7 3 2 3 3 4 4 4 4 5 6 6 4 4 4 4 4 3 4 4 4 3 3 3 3 3 3 3 4 4 5 5 5 10 14 15
3 4 4 4 5 6 8 8 6 2 2 3 3 3 3 3 4 3 5 5 5 5 6 4 5 5 4 4 4 4 4 4 4 2 3 4 3 5 4 6 11 14 15
3 4 4 4 4 6 8 7 6 2 2 3 3 3 3 4 4 3 3 3 3 4 4 4 5 5 5 4 5 5 4 4 3 2 3 3 3 4 4 5 10 14 15
3 3 3 4 4 6 8 8 5 1 2 4 3 3 3 4 6 6 3 4 4 4 5 6 7 7 8 8 6 3 3 4 4 3 4 3 2 2 3 4 6 12 13
3 3 3 3 3 5 8 8 6 1 2 3 4 4 5 5 8 7 3 4 5 5 4 4 4 5 5 6 7 6 5 5 4 3 4 4 3 2 3 3 4 5 7
Wind_Direction
315 320 317 313 307 300 283 267 252 244 239 240 234 232 233 236 234 231 245 248 239 227 221 216 207 201 196 192 188 184 176 172 170 166 162 157 153 150 147 142 139 136 135
315 318 317 313 306 295 277 258 251 245 243 242 248 240 236 235 233 234 231 245 241 229 224 219 212 202 198 196 192 186 180 177 176 171 166 161 157 155 153 151 147 146 144
329 323 319 314 307 302 292 279 262 248 251 246 254 247 231 227 229 232 232 226 230 228 222 218 214 202 202 200 195 189 184 180 179 175 171 167 163 160 157 156 155 152 148
341 330 321 311 310 314 309 279 240 252 254 251 255 257 243 227 229 227 225 224 214 219 218 213 212 206 208 205 200 194 188 185 184 180 177 173 169 166 164 163 161 160 154
348 336 313 307 316 321 321 300 248 232 256 264 255 247 240 230 231 228 220 220 214 209 202 206 207 207 209 207 203 199 193 191 189 186 183 178 174 173 171 170 168 167 165
346 344 324 323 328 333 333 324 282 254 246 260 277 274 245 228 223 222 217 210 210 207 200 197 198 209 212 207 204 202 197 195 193 191 188 184 180 179 179 178 177 177 177
349 351 348 341 348 344 322 316 282 265 269 256 316 309 290 238 228 229 216 204 212 208 197 195 188 190 208 210 206 204 201 198 198 195 193 190 187 186 185 184 187 187 189
348 354 354 344 345 348 349 350 0 316 284 216 158 196 318 326 278 238 219 213 215 199 203 203 191 191 196 195 205 206 204 201 201 200 198 196 193 191 191 193 193 193 197
341 345 344 344 340 348 323 303 292 150 279 290 223 175 172 239 300 312 251 228 212 203 207 201 198 198 198 195 197 208 205 204 204 204 203 201 198 196 197 198 199 199 201
337 340 341 344 340 329 317 305 317 221 204 276 299 261 216 194 186 328 330 307 255 223 217 217 207 201 200 197 202 203 205 205 207 210 210 207 204 201 202 203 204 204 205
334 340 339 343 339 328 317 316 321 281 210 212 238 261 237 220 193 205 284 316 313 266 233 219 209 205 202 200 202 207 207 207 210 213 214 213 209 207 207 208 208 208 208
328 341 342 343 332 322 312 308 302 287 256 238 236 232 219 208 203 198 222 257 280 280 260 233 214 208 204 203 211 209 207 208 211 214 214 215 214 212 211 212 212 212 212
320 327 338 333 329 321 311 306 303 298 277 253 247 242 240 238 219 201 208 228 247 279 281 262 230 212 213 204 214 211 212 211 212 214 213 213 214 214 215 216 215 215 215
292 309 326 329 327 328 329 330 318 299 292 276 267 253 246 249 230 215 204 194 225 265 270 265 270 228 223 206 214 209 216 214 214 217 216 215 214 214 214 215 217 218 217
300 323 332 338 339 341 340 341 327 312 308 290 279 268 259 259 246 235 222 200 197 223 251 253 250 246 228 214 209 207 214 218 218 218 218 217 216 215 214 213 214 216 217
315 327 337 341 340 339 340 346 326 317 326 304 281 281 280 269 266 248 229 217 210 211 238 254 241 251 245 239 217 214 218 220 221 220 218 217 216 216 214 211 210 210 212
313 321 325 332 334 332 334 337 321 320 323 314 309 290 284 277 268 260 238 222 215 209 237 260 250 253 237 240 236 221 219 218 221 220 220 219 217 214 212 211 208 207 207
302 306 314 319 323 324 324 321 315 319 311 306 303 296 289 289 279 271 250 237 228 218 223 248 251 245 244 237 233 230 228 224 221 223 221 220 216 213 211 211 209 206 205
296 306 309 308 309 311 311 305 295 297 292 285 284 282 283 284 277 268 255 241 234 231 221 236 249 243 251 245 243 245 236 232 230 228 223 222 218 213 211 210 209 207 205
287 295 298 296 295 296 295 297 293 290 291 286 279 275 277 268 264 263 257 244 232 231 231 238 245 245 246 239 225 237 247 231 235 231 228 222 219 217 215 211 210 209 207
279 283 292 301 301 294 288 292 287 288 293 298 296 284 278 278 275 266 254 236 219 224 231 237 241 242 238 223 226 222 239 247 242 219 222 223 213 216 214 214 213 211 208
282 284 285 291 299 296 308 312 301 282 290 293 299 301 294 293 306 310 302 280 243 226 228 231 238 241 243 232 227 226 231 233 250 213 205 226 202 220 215 210 211 209 209
279 281 282 283 287 290 303 312 313 290 282 285 284 296 308 309 318 310 310 305 289 272 251 235 240 245 242 231 223 234 230 228 233 215 202 237 210 226 219 218 210 210 211
275 275 279 282 284 293 309 314 313 303 287 289 279 272 280 296 300 299 298 299 289 281 268 249 238 246 246 242 231 235 241 242 252 231 198 232 220 226 219 218 215 212 212
287 279 279 287 288 298 315 321 323 295 297 299 295 287 285 287 300 313 301 292 292 289 275 259 256 257 258 257 242 230 229 233 249 235 200 213 220 230 229 228 222 216 216
285 301 309 306 298 300 322 332 335 267 294 303 307 301 298 298 303 312 292 279 285 287 292 295 287 281 266 258 246 230 226 232 240 239 204 193 199 193 244 230 218 214 216